Year,Month,Day,Hour,Minute,Value (Times are PST for temperature in C)
2006,10,12,00,00,10.90
2006,10,12,00,01,10.90
2006,10,12,00,02,10.90
2006,10,12,00,03,10.90
2006,10,12,00,04,10.90
2006,10,12,00,05,10.90
2006,10,12,00,06,10.90
2006,10,12,00,07,10.90
2006,10,12,00,08,10.90
2006,10,12,00,09,10.80
2006,10,12,00,10,10.70
2006,10,12,00,11,10.70
2006,10,12,00,12,10.70
2006,10,12,00,13,10.60
2006,10,12,00,14,10.60
2006,10,12,00,15,10.60
2006,10,12,00,16,10.60
2006,10,12,00,17,10.60
2006,10,12,00,18,10.60
2006,10,12,00,19,10.60
2006,10,12,00,20,10.60
2006,10,12,00,21,10.60
2006,10,12,00,22,10.60
2006,10,12,00,23,10.60
2006,10,12,00,24,10.60
2006,10,12,00,25,10.60
2006,10,12,00,26,10.70
2006,10,12,00,27,10.70
2006,10,12,00,28,10.80
2006,10,12,00,29,10.80
2006,10,12,00,30,10.80
2006,10,12,00,31,10.80
2006,10,12,00,32,10.90
2006,10,12,00,33,10.90
2006,10,12,00,34,10.90
2006,10,12,00,35,10.90
2006,10,12,00,36,10.90
2006,10,12,00,37,10.90
2006,10,12,00,38,10.90
2006,10,12,00,39,10.90
2006,10,12,00,40,10.90
2006,10,12,00,41,10.90
2006,10,12,00,42,10.90
2006,10,12,00,43,10.90
2006,10,12,00,44,10.90
2006,10,12,00,45,10.90
2006,10,12,00,46,10.90
2006,10,12,00,47,10.90
2006,10,12,00,48,10.90
2006,10,12,00,49,10.90
2006,10,12,00,50,10.90
2006,10,12,00,51,10.90
2006,10,12,00,52,10.90
2006,10,12,00,53,10.90
2006,10,12,00,54,10.90
2006,10,12,00,55,10.90
2006,10,12,00,56,10.90
2006,10,12,00,57,10.90
2006,10,12,00,58,10.90
2006,10,12,00,59,10.90
2006,10,12,01,00,10.90
2006,10,12,01,01,10.90
2006,10,12,01,02,10.90
2006,10,12,01,03,10.90
2006,10,12,01,04,10.90
2006,10,12,01,05,10.90
2006,10,12,01,06,10.90
2006,10,12,01,07,10.90
2006,10,12,01,08,10.90
2006,10,12,01,09,10.90
2006,10,12,01,10,10.90
2006,10,12,01,11,10.90
2006,10,12,01,12,10.90
2006,10,12,01,13,10.90
2006,10,12,01,14,10.90
2006,10,12,01,15,10.90
2006,10,12,01,16,10.90
2006,10,12,01,17,10.90
2006,10,12,01,18,10.90
2006,10,12,01,19,10.90
2006,10,12,01,20,10.90
2006,10,12,01,21,10.90
2006,10,12,01,22,10.90
2006,10,12,01,23,10.90
2006,10,12,01,24,10.90
2006,10,12,01,25,10.90
2006,10,12,01,26,10.90
2006,10,12,01,27,10.90
2006,10,12,01,28,10.80
2006,10,12,01,29,10.80
2006,10,12,01,30,10.80
2006,10,12,01,31,10.70
2006,10,12,01,32,10.70
2006,10,12,01,33,10.70
2006,10,12,01,34,10.70
2006,10,12,01,35,10.70
2006,10,12,01,36,10.60
2006,10,12,01,37,10.60
2006,10,12,01,38,10.60
2006,10,12,01,39,10.60
2006,10,12,01,40,10.60
2006,10,12,01,41,10.60
2006,10,12,01,42,10.60
2006,10,12,01,43,10.40
2006,10,12,01,44,10.40
2006,10,12,01,45,10.40
2006,10,12,01,46,10.40
2006,10,12,01,47,10.40
2006,10,12,01,48,10.40
2006,10,12,01,49,10.40
2006,10,12,01,50,10.40
2006,10,12,01,51,10.40
2006,10,12,01,52,10.40
2006,10,12,01,53,10.40
2006,10,12,01,54,10.40
2006,10,12,01,55,10.50
2006,10,12,01,56,10.60
2006,10,12,01,57,10.60
2006,10,12,01,58,10.60
2006,10,12,01,59,10.60
2006,10,12,02,00,10.60
2006,10,12,02,01,10.60
2006,10,12,02,02,10.70
2006,10,12,02,03,10.70
2006,10,12,02,04,10.80
2006,10,12,02,05,10.80
2006,10,12,02,06,10.80
2006,10,12,02,07,10.90
2006,10,12,02,08,10.90
2006,10,12,02,09,10.90
2006,10,12,02,10,10.90
2006,10,12,02,11,10.90
2006,10,12,02,12,10.90
2006,10,12,02,13,11.00
2006,10,12,02,14,11.10
2006,10,12,02,15,11.10
2006,10,12,02,16,11.10
2006,10,12,02,17,11.10
2006,10,12,02,18,11.10
2006,10,12,02,19,11.20
2006,10,12,02,20,11.20
2006,10,12,02,21,11.20
2006,10,12,02,22,11.10
2006,10,12,02,23,11.10
2006,10,12,02,24,11.10
2006,10,12,02,25,11.00
2006,10,12,02,26,10.90
2006,10,12,02,27,10.80
2006,10,12,02,28,10.70
2006,10,12,02,29,10.60
2006,10,12,02,30,10.50
2006,10,12,02,31,10.40
2006,10,12,02,32,10.40
2006,10,12,02,33,10.30
2006,10,12,02,34,10.20
2006,10,12,02,35,10.10
2006,10,12,02,36,10.10
2006,10,12,02,37,10.00
2006,10,12,02,38,9.90
2006,10,12,02,39,9.90
2006,10,12,02,40,10.00
2006,10,12,02,41,10.10
2006,10,12,02,42,10.10
2006,10,12,02,43,10.10
2006,10,12,02,44,10.10
2006,10,12,02,45,10.20
2006,10,12,02,46,10.20
2006,10,12,02,47,10.30
2006,10,12,02,48,10.30
2006,10,12,02,49,10.40
2006,10,12,02,50,10.40
2006,10,12,02,51,10.40
2006,10,12,02,52,10.50
2006,10,12,02,53,10.60
2006,10,12,02,54,10.60
2006,10,12,02,55,10.60
2006,10,12,02,56,10.60
2006,10,12,02,57,10.70
2006,10,12,02,58,10.70
2006,10,12,02,59,10.70
2006,10,12,03,00,10.80
2006,10,12,03,01,10.80
2006,10,12,03,02,10.80
2006,10,12,03,03,10.90
2006,10,12,03,04,10.90
2006,10,12,03,05,10.90
2006,10,12,03,06,10.90
2006,10,12,03,07,10.90
2006,10,12,03,08,10.90
2006,10,12,03,09,10.90
2006,10,12,03,10,10.90
2006,10,12,03,11,10.90
2006,10,12,03,12,10.90
2006,10,12,03,13,10.90
2006,10,12,03,14,10.90
2006,10,12,03,15,10.90
2006,10,12,03,16,10.90
2006,10,12,03,17,10.90
2006,10,12,03,18,10.90
2006,10,12,03,19,10.90
2006,10,12,03,20,10.90
2006,10,12,03,21,10.90
2006,10,12,03,22,10.90
2006,10,12,03,23,10.90
2006,10,12,03,24,10.90
2006,10,12,03,25,10.90
2006,10,12,03,26,10.90
2006,10,12,03,27,10.90
2006,10,12,03,28,10.90
2006,10,12,03,29,10.90
2006,10,12,03,30,10.90
2006,10,12,03,31,11.00
2006,10,12,03,32,11.00
2006,10,12,03,33,10.90
2006,10,12,03,34,10.90
2006,10,12,03,35,10.90
2006,10,12,03,36,10.80
2006,10,12,03,37,10.80
2006,10,12,03,38,10.80
2006,10,12,03,39,10.80
2006,10,12,03,40,10.80
2006,10,12,03,41,10.80
2006,10,12,03,42,10.80
2006,10,12,03,43,10.80
2006,10,12,03,44,10.80
2006,10,12,03,45,10.80
2006,10,12,03,46,10.80
2006,10,12,03,47,10.70
2006,10,12,03,48,10.60
2006,10,12,03,49,10.60
2006,10,12,03,50,10.50
2006,10,12,03,51,10.40
2006,10,12,03,52,10.40
2006,10,12,03,53,10.30
2006,10,12,03,54,10.20
2006,10,12,03,55,10.20
2006,10,12,03,56,10.10
2006,10,12,03,57,10.10
2006,10,12,03,58,10.10
2006,10,12,03,59,10.10
2006,10,12,04,00,10.10
2006,10,12,04,01,10.10
2006,10,12,04,02,10.10
2006,10,12,04,03,10.10
2006,10,12,04,04,10.10
2006,10,12,04,05,10.20
2006,10,12,04,06,10.20
2006,10,12,04,07,10.20
2006,10,12,04,08,10.30
2006,10,12,04,09,10.30
2006,10,12,04,10,10.40
2006,10,12,04,11,10.40
2006,10,12,04,12,10.40
2006,10,12,04,13,10.40
2006,10,12,04,14,10.60
2006,10,12,04,15,10.60
2006,10,12,04,16,10.60
2006,10,12,04,17,10.60
2006,10,12,04,18,10.60
2006,10,12,04,19,10.60
2006,10,12,04,20,10.70
2006,10,12,04,21,10.70
2006,10,12,04,22,10.80
2006,10,12,04,23,10.80
2006,10,12,04,24,10.80
2006,10,12,04,25,10.80
2006,10,12,04,26,10.80
2006,10,12,04,27,10.80
2006,10,12,04,28,10.80
2006,10,12,04,29,10.80
2006,10,12,04,30,10.80
2006,10,12,04,31,10.80
2006,10,12,04,32,10.80
2006,10,12,04,33,10.80
2006,10,12,04,34,10.80
2006,10,12,04,35,10.80
2006,10,12,04,36,10.80
2006,10,12,04,37,10.80
2006,10,12,04,38,10.80
2006,10,12,04,39,10.80
2006,10,12,04,40,10.80
2006,10,12,04,41,10.90
2006,10,12,04,42,10.90
2006,10,12,04,43,10.90
2006,10,12,04,44,10.90
2006,10,12,04,45,10.90
2006,10,12,04,46,10.90
2006,10,12,04,47,10.90
2006,10,12,04,48,10.90
2006,10,12,04,49,10.90
2006,10,12,04,50,10.90
2006,10,12,04,51,10.90
2006,10,12,04,52,10.90
2006,10,12,04,53,10.90
2006,10,12,04,54,10.90
2006,10,12,04,55,10.90
2006,10,12,04,56,10.90
2006,10,12,04,57,10.90
2006,10,12,04,58,10.90
2006,10,12,04,59,10.90
2006,10,12,05,00,10.90
2006,10,12,05,01,10.80
2006,10,12,05,02,10.80
2006,10,12,05,03,10.70
2006,10,12,05,04,10.70
2006,10,12,05,05,10.60
2006,10,12,05,06,10.60
2006,10,12,05,07,10.60
2006,10,12,05,08,10.60
2006,10,12,05,09,10.60
2006,10,12,05,10,10.60
2006,10,12,05,11,10.60
2006,10,12,05,12,10.60
2006,10,12,05,13,10.60
2006,10,12,05,14,10.60
2006,10,12,05,15,10.60
2006,10,12,05,16,10.60
2006,10,12,05,17,10.60
2006,10,12,05,18,10.60
2006,10,12,05,19,10.60
2006,10,12,05,20,10.60
2006,10,12,05,21,10.60
2006,10,12,05,22,10.60
2006,10,12,05,23,10.60
2006,10,12,05,24,10.60
2006,10,12,05,25,10.60
2006,10,12,05,26,10.60
2006,10,12,05,27,10.70
2006,10,12,05,28,10.70
2006,10,12,05,29,10.70
2006,10,12,05,30,10.70
2006,10,12,05,31,10.70
2006,10,12,05,32,10.70
2006,10,12,05,33,10.70
2006,10,12,05,34,10.70
2006,10,12,05,35,10.60
2006,10,12,05,36,10.60
2006,10,12,05,37,10.60
2006,10,12,05,38,10.60
2006,10,12,05,39,10.40
2006,10,12,05,40,10.40
2006,10,12,05,41,10.40
2006,10,12,05,42,10.40
2006,10,12,05,43,10.40
2006,10,12,05,44,10.40
2006,10,12,05,45,10.30
2006,10,12,05,46,10.30
2006,10,12,05,47,10.30
2006,10,12,05,48,10.30
2006,10,12,05,49,10.40
2006,10,12,05,50,10.40
2006,10,12,05,51,10.30
2006,10,12,05,52,10.30
2006,10,12,05,53,10.30
2006,10,12,05,54,10.30
2006,10,12,05,55,10.30
2006,10,12,05,56,10.30
2006,10,12,05,57,10.20
2006,10,12,05,58,10.20
2006,10,12,05,59,10.20
2006,10,12,06,00,10.10
2006,10,12,06,01,10.10
2006,10,12,06,02,10.10
2006,10,12,06,03,10.10
2006,10,12,06,04,10.10
2006,10,12,06,05,10.00
2006,10,12,06,06,9.90
2006,10,12,06,07,9.90
2006,10,12,06,08,9.90
2006,10,12,06,09,9.90
2006,10,12,06,10,9.90
2006,10,12,06,11,9.80
2006,10,12,06,12,9.80
2006,10,12,06,13,9.80
2006,10,12,06,14,9.80
2006,10,12,06,15,9.80
2006,10,12,06,16,9.70
2006,10,12,06,17,9.70
2006,10,12,06,18,9.70
2006,10,12,06,19,9.70
2006,10,12,06,20,9.80
2006,10,12,06,21,9.80
2006,10,12,06,22,9.70
2006,10,12,06,23,9.70
2006,10,12,06,24,9.70
2006,10,12,06,25,9.70
2006,10,12,06,26,9.60
2006,10,12,06,27,9.60
2006,10,12,06,28,9.60
2006,10,12,06,29,9.50
2006,10,12,06,30,9.50
2006,10,12,06,31,9.40
2006,10,12,06,32,9.30
2006,10,12,06,33,9.20
2006,10,12,06,34,9.20
2006,10,12,06,35,9.20
2006,10,12,06,36,9.10
2006,10,12,06,37,9.00
2006,10,12,06,38,9.00
2006,10,12,06,39,8.90
2006,10,12,06,40,8.90
2006,10,12,06,41,8.90
2006,10,12,06,42,8.90
2006,10,12,06,43,8.90
2006,10,12,06,44,9.00
2006,10,12,06,45,8.90
2006,10,12,06,46,8.90
2006,10,12,06,47,8.80
2006,10,12,06,48,8.80
2006,10,12,06,49,8.70
2006,10,12,06,50,8.70
2006,10,12,06,51,8.70
2006,10,12,06,52,8.70
2006,10,12,06,53,8.70
2006,10,12,06,54,8.70
2006,10,12,06,55,8.70
2006,10,12,06,56,8.80
2006,10,12,06,57,8.80
2006,10,12,06,58,8.80
2006,10,12,06,59,8.90
2006,10,12,07,00,9.00
2006,10,12,07,01,9.00
2006,10,12,07,02,9.00
2006,10,12,07,03,8.90
2006,10,12,07,04,8.90
2006,10,12,07,05,9.00
2006,10,12,07,06,9.00
2006,10,12,07,07,9.00
2006,10,12,07,08,9.00
2006,10,12,07,09,8.90
2006,10,12,07,10,9.00
2006,10,12,07,11,9.00
2006,10,12,07,12,9.00
2006,10,12,07,13,8.90
2006,10,12,07,14,8.90
2006,10,12,07,15,8.90
2006,10,12,07,16,8.90
2006,10,12,07,17,8.90
2006,10,12,07,18,8.80
2006,10,12,07,19,8.80
2006,10,12,07,20,8.80
2006,10,12,07,21,8.80
2006,10,12,07,22,8.80
2006,10,12,07,23,8.90
2006,10,12,07,24,8.90
2006,10,12,07,25,8.90
2006,10,12,07,26,8.90
2006,10,12,07,27,8.80
2006,10,12,07,28,8.80
2006,10,12,07,29,8.80
2006,10,12,07,30,8.80
2006,10,12,07,31,8.80
2006,10,12,07,32,8.70
2006,10,12,07,33,8.70
2006,10,12,07,34,8.70
2006,10,12,07,35,8.70
2006,10,12,07,36,8.70
2006,10,12,07,37,8.70
2006,10,12,07,38,8.70
2006,10,12,07,39,8.70
2006,10,12,07,40,8.70
2006,10,12,07,41,8.70
2006,10,12,07,42,8.70
2006,10,12,07,43,8.70
2006,10,12,07,44,8.60
2006,10,12,07,45,8.60
2006,10,12,07,46,8.70
2006,10,12,07,47,8.70
2006,10,12,07,48,8.70
2006,10,12,07,49,8.70
2006,10,12,07,50,8.70
2006,10,12,07,51,8.70
2006,10,12,07,52,8.70
2006,10,12,07,53,8.70
2006,10,12,07,54,8.70
2006,10,12,07,55,8.70
2006,10,12,07,56,8.80
2006,10,12,07,57,8.80
2006,10,12,07,58,8.90
2006,10,12,07,59,8.90
2006,10,12,08,00,8.90
2006,10,12,08,01,9.00
2006,10,12,08,02,9.00
2006,10,12,08,03,9.00
2006,10,12,08,04,9.10
2006,10,12,08,05,9.10
2006,10,12,08,06,9.20
2006,10,12,08,07,9.20
2006,10,12,08,08,9.20
2006,10,12,08,09,9.20
2006,10,12,08,10,9.20
2006,10,12,08,11,9.20
2006,10,12,08,12,9.20
2006,10,12,08,13,9.20
2006,10,12,08,14,9.20
2006,10,12,08,15,9.20
2006,10,12,08,16,9.20
2006,10,12,08,17,9.20
2006,10,12,08,18,9.20
2006,10,12,08,19,9.20
2006,10,12,08,20,9.20
2006,10,12,08,21,9.20
2006,10,12,08,22,9.20
2006,10,12,08,23,9.20
2006,10,12,08,24,9.30
2006,10,12,08,25,9.30
2006,10,12,08,26,9.30
2006,10,12,08,27,9.40
2006,10,12,08,28,9.40
2006,10,12,08,29,9.40
2006,10,12,08,30,9.50
2006,10,12,08,31,9.50
2006,10,12,08,32,9.60
2006,10,12,08,33,9.60
2006,10,12,08,34,9.60
2006,10,12,08,35,9.90
2006,10,12,08,36,9.90
2006,10,12,08,37,10.10
2006,10,12,08,38,10.10
2006,10,12,08,39,10.20
2006,10,12,08,40,10.20
2006,10,12,08,41,10.30
2006,10,12,08,42,10.30
2006,10,12,08,43,10.40
2006,10,12,08,44,10.40
2006,10,12,08,45,10.50
2006,10,12,08,46,10.60
2006,10,12,08,47,10.60
2006,10,12,08,48,10.60
2006,10,12,08,49,10.70
2006,10,12,08,50,10.80
2006,10,12,08,51,10.90
2006,10,12,08,52,10.90
2006,10,12,08,53,11.00
2006,10,12,08,54,11.10
2006,10,12,08,55,11.20
2006,10,12,08,56,11.20
2006,10,12,08,57,11.30
2006,10,12,08,58,11.40
2006,10,12,08,59,11.50
2006,10,12,09,00,11.60
2006,10,12,09,01,11.60
2006,10,12,09,02,11.70
2006,10,12,09,03,11.80
2006,10,12,09,04,11.80
2006,10,12,09,05,11.90
2006,10,12,09,06,12.00
2006,10,12,09,07,12.00
2006,10,12,09,08,12.20
2006,10,12,09,09,12.20
2006,10,12,09,10,12.30
2006,10,12,09,11,12.30
2006,10,12,09,12,12.30
2006,10,12,09,13,12.30
2006,10,12,09,14,12.30
2006,10,12,09,15,12.30
2006,10,12,09,16,12.30
2006,10,12,09,17,12.30
2006,10,12,09,18,12.30
2006,10,12,09,19,12.40
2006,10,12,09,20,12.40
2006,10,12,09,21,12.50
2006,10,12,09,22,12.50
2006,10,12,09,23,12.60
2006,10,12,09,24,12.50
2006,10,12,09,25,12.50
2006,10,12,09,26,12.40
2006,10,12,09,27,12.40
2006,10,12,09,28,12.40
2006,10,12,09,29,12.40
2006,10,12,09,30,12.30
2006,10,12,09,31,12.30
2006,10,12,09,32,12.40
2006,10,12,09,33,12.40
2006,10,12,09,34,12.40
2006,10,12,09,35,12.30
2006,10,12,09,36,12.30
2006,10,12,09,37,12.30
2006,10,12,09,38,12.30
2006,10,12,09,39,12.30
2006,10,12,09,40,12.30
2006,10,12,09,41,12.30
2006,10,12,09,42,12.30
2006,10,12,09,43,12.30
2006,10,12,09,44,12.30
2006,10,12,09,45,12.30
2006,10,12,09,46,12.30
2006,10,12,09,47,12.30
2006,10,12,09,48,12.20
2006,10,12,09,49,12.20
2006,10,12,09,50,12.30
2006,10,12,09,51,12.20
2006,10,12,09,52,12.20
2006,10,12,09,53,12.30
2006,10,12,09,54,12.30
2006,10,12,09,55,12.40
2006,10,12,09,56,12.40
2006,10,12,09,57,12.50
2006,10,12,09,58,12.50
2006,10,12,09,59,12.50
2006,10,12,10,00,12.60
2006,10,12,10,01,12.70
2006,10,12,10,02,12.70
2006,10,12,10,03,12.80
2006,10,12,10,04,12.80
2006,10,12,10,05,12.90
2006,10,12,10,06,13.00
2006,10,12,10,07,13.00
2006,10,12,10,08,13.10
2006,10,12,10,09,13.20
2006,10,12,10,10,13.30
2006,10,12,10,11,13.30
2006,10,12,10,12,13.30
2006,10,12,10,13,13.30
2006,10,12,10,14,13.30
2006,10,12,10,15,13.30
2006,10,12,10,16,13.40
2006,10,12,10,17,13.40
2006,10,12,10,18,13.50
2006,10,12,10,19,13.50
2006,10,12,10,20,13.50
2006,10,12,10,21,13.60
2006,10,12,10,22,13.60
2006,10,12,10,23,13.60
2006,10,12,10,24,13.60
2006,10,12,10,25,13.60
2006,10,12,10,26,13.60
2006,10,12,10,27,13.60
2006,10,12,10,28,13.60
2006,10,12,10,29,13.60
2006,10,12,10,30,13.60
2006,10,12,10,31,13.70
2006,10,12,10,32,13.60
2006,10,12,10,33,13.60
2006,10,12,10,34,13.60
2006,10,12,10,35,13.60
2006,10,12,10,36,13.60
2006,10,12,10,37,13.60
2006,10,12,10,38,13.60
2006,10,12,10,39,13.60
2006,10,12,10,40,13.60
2006,10,12,10,41,13.50
2006,10,12,10,42,13.60
2006,10,12,10,43,13.60
2006,10,12,10,44,13.60
2006,10,12,10,45,13.60
2006,10,12,10,46,13.70
2006,10,12,10,47,13.70
2006,10,12,10,48,13.70
2006,10,12,10,49,13.70
2006,10,12,10,50,13.80
2006,10,12,10,51,13.90
2006,10,12,10,52,13.90
2006,10,12,10,53,14.00
2006,10,12,10,54,14.00
2006,10,12,10,55,14.00
2006,10,12,10,56,14.00
2006,10,12,10,57,14.00
2006,10,12,10,58,14.10
2006,10,12,10,59,14.20
2006,10,12,11,00,14.20
2006,10,12,11,01,14.20
2006,10,12,11,02,14.20
2006,10,12,11,03,14.30
2006,10,12,11,04,14.30
2006,10,12,11,05,14.30
2006,10,12,11,06,14.30
2006,10,12,11,07,14.30
2006,10,12,11,08,14.30
2006,10,12,11,09,14.30
2006,10,12,11,10,14.30
2006,10,12,11,11,14.30
2006,10,12,11,12,14.30
2006,10,12,11,13,14.30
2006,10,12,11,14,14.30
2006,10,12,11,15,14.30
2006,10,12,11,16,14.40
2006,10,12,11,17,14.50
2006,10,12,11,18,14.50
2006,10,12,11,19,14.50
2006,10,12,11,20,14.60
2006,10,12,11,21,14.60
2006,10,12,11,22,14.60
2006,10,12,11,23,14.50
2006,10,12,11,24,14.50
2006,10,12,11,25,14.50
2006,10,12,11,26,14.50
2006,10,12,11,27,14.50
2006,10,12,11,28,14.50
2006,10,12,11,29,14.60
2006,10,12,11,30,14.60
2006,10,12,11,31,14.60
2006,10,12,11,32,14.60
2006,10,12,11,33,14.60
2006,10,12,11,34,14.70
2006,10,12,11,35,14.80
2006,10,12,11,36,14.80
2006,10,12,11,37,14.80
2006,10,12,11,38,14.90
2006,10,12,11,39,14.90
2006,10,12,11,40,15.10
2006,10,12,11,41,15.20
2006,10,12,11,42,15.20
2006,10,12,11,43,15.20
2006,10,12,11,44,15.10
2006,10,12,11,45,15.00
2006,10,12,11,46,15.00
2006,10,12,11,47,15.10
2006,10,12,11,48,15.20
2006,10,12,11,49,15.30
2006,10,12,11,50,15.20
2006,10,12,11,51,15.20
2006,10,12,11,52,15.10
2006,10,12,11,53,15.20
2006,10,12,11,54,15.30
2006,10,12,11,55,15.30
2006,10,12,11,56,15.40
2006,10,12,11,57,15.40
2006,10,12,11,58,15.40
2006,10,12,11,59,15.40
2006,10,12,12,00,15.40
2006,10,12,12,01,15.30
2006,10,12,12,02,15.30
2006,10,12,12,03,15.30
2006,10,12,12,04,15.30
2006,10,12,12,05,15.30
2006,10,12,12,06,15.30
2006,10,12,12,07,15.30
2006,10,12,12,08,15.30
2006,10,12,12,09,15.30
2006,10,12,12,10,15.30
2006,10,12,12,11,15.40
2006,10,12,12,12,15.40
2006,10,12,12,13,15.50
2006,10,12,12,14,15.50
2006,10,12,12,15,15.50
2006,10,12,12,16,15.50
2006,10,12,12,17,15.50
2006,10,12,12,18,15.50
2006,10,12,12,19,15.40
2006,10,12,12,20,15.40
2006,10,12,12,21,15.40
2006,10,12,12,22,15.40
2006,10,12,12,23,15.50
2006,10,12,12,24,15.50
2006,10,12,12,25,15.60
2006,10,12,12,26,15.70
2006,10,12,12,27,15.80
2006,10,12,12,28,15.80
2006,10,12,12,29,15.80
2006,10,12,12,30,15.80
2006,10,12,12,31,15.80
2006,10,12,12,32,15.90
2006,10,12,12,33,15.90
2006,10,12,12,34,15.90
2006,10,12,12,35,15.80
2006,10,12,12,36,15.90
2006,10,12,12,37,15.90
2006,10,12,12,38,15.90
2006,10,12,12,39,15.90
2006,10,12,12,40,15.90
2006,10,12,12,41,16.00
2006,10,12,12,42,16.10
2006,10,12,12,43,16.10
2006,10,12,12,44,16.10
2006,10,12,12,45,16.10
2006,10,12,12,46,16.20
2006,10,12,12,47,16.20
2006,10,12,12,48,16.20
2006,10,12,12,49,16.20
2006,10,12,12,50,16.20
2006,10,12,12,51,16.30
2006,10,12,12,52,16.30
2006,10,12,12,53,16.40
2006,10,12,12,54,16.40
2006,10,12,12,55,16.40
2006,10,12,12,56,16.40
2006,10,12,12,57,16.40
2006,10,12,12,58,16.40
2006,10,12,12,59,16.50
2006,10,12,13,00,16.60
2006,10,12,13,01,16.60
2006,10,12,13,02,16.70
2006,10,12,13,03,16.70
2006,10,12,13,04,16.80
2006,10,12,13,05,16.80
2006,10,12,13,06,16.90
2006,10,12,13,07,16.90
2006,10,12,13,08,16.90
2006,10,12,13,09,16.90
2006,10,12,13,10,16.90
2006,10,12,13,11,17.00
2006,10,12,13,12,17.00
2006,10,12,13,13,17.00
2006,10,12,13,14,17.10
2006,10,12,13,15,17.20
2006,10,12,13,16,17.20
2006,10,12,13,17,17.20
2006,10,12,13,18,17.20
2006,10,12,13,19,17.20
2006,10,12,13,20,17.20
2006,10,12,13,21,17.20
2006,10,12,13,22,17.20
2006,10,12,13,23,17.20
2006,10,12,13,24,17.20
2006,10,12,13,25,17.20
2006,10,12,13,26,17.20
2006,10,12,13,27,17.20
2006,10,12,13,28,17.20
2006,10,12,13,29,17.30
2006,10,12,13,30,17.30
2006,10,12,13,31,17.30
2006,10,12,13,32,17.20
2006,10,12,13,33,17.20
2006,10,12,13,34,17.20
2006,10,12,13,35,17.20
2006,10,12,13,36,17.30
2006,10,12,13,37,17.30
2006,10,12,13,38,17.40
2006,10,12,13,39,17.40
2006,10,12,13,40,17.40
2006,10,12,13,41,17.40
2006,10,12,13,42,17.40
2006,10,12,13,43,17.50
2006,10,12,13,44,17.50
2006,10,12,13,45,17.60
2006,10,12,13,46,17.70
2006,10,12,13,47,17.80
2006,10,12,13,48,17.80
2006,10,12,13,49,17.80
2006,10,12,13,50,17.70
2006,10,12,13,51,17.60
2006,10,12,13,52,17.70
2006,10,12,13,53,17.70
2006,10,12,13,54,17.70
2006,10,12,13,55,17.70
2006,10,12,13,56,17.70
2006,10,12,13,57,17.70
2006,10,12,13,58,17.70
2006,10,12,13,59,17.80
2006,10,12,14,00,17.90
2006,10,12,14,01,17.90
2006,10,12,14,02,18.00
2006,10,12,14,03,18.00
2006,10,12,14,04,17.90
2006,10,12,14,05,17.90
2006,10,12,14,06,17.90
2006,10,12,14,07,17.90
2006,10,12,14,08,17.90
2006,10,12,14,09,18.00
2006,10,12,14,10,18.10
2006,10,12,14,11,18.00
2006,10,12,14,12,17.90
2006,10,12,14,13,17.90
2006,10,12,14,14,17.90
2006,10,12,14,15,17.90
2006,10,12,14,16,17.90
2006,10,12,14,17,17.90
2006,10,12,14,18,17.90
2006,10,12,14,19,18.10
2006,10,12,14,20,18.10
2006,10,12,14,21,18.20
2006,10,12,14,22,18.30
2006,10,12,14,23,18.30
2006,10,12,14,24,18.30
2006,10,12,14,25,18.30
2006,10,12,14,26,18.30
2006,10,12,14,27,18.10
2006,10,12,14,28,18.00
2006,10,12,14,29,17.90
2006,10,12,14,30,17.80
2006,10,12,14,31,17.80
2006,10,12,14,32,17.60
2006,10,12,14,33,17.50
2006,10,12,14,34,17.40
2006,10,12,14,35,17.20
2006,10,12,14,36,17.20
2006,10,12,14,37,17.00
2006,10,12,14,38,17.00
2006,10,12,14,39,17.00
2006,10,12,14,40,17.00
2006,10,12,14,41,17.00
2006,10,12,14,42,16.90
2006,10,12,14,43,16.90
2006,10,12,14,44,17.00
2006,10,12,14,45,17.10
2006,10,12,14,46,17.20
2006,10,12,14,47,17.30
2006,10,12,14,48,17.30
2006,10,12,14,49,17.40
2006,10,12,14,50,17.50
2006,10,12,14,51,17.60
2006,10,12,14,52,17.70
2006,10,12,14,53,17.70
2006,10,12,14,54,17.80
2006,10,12,14,55,17.90
2006,10,12,14,56,17.90
2006,10,12,14,57,17.80
2006,10,12,14,58,17.70
2006,10,12,14,59,17.70
2006,10,12,15,00,17.70
2006,10,12,15,01,17.70
2006,10,12,15,02,17.70
2006,10,12,15,03,17.70
2006,10,12,15,04,17.80
2006,10,12,15,05,17.80
2006,10,12,15,06,17.70
2006,10,12,15,07,17.60
2006,10,12,15,08,17.60
2006,10,12,15,09,17.50
2006,10,12,15,10,17.30
2006,10,12,15,11,17.20
2006,10,12,15,12,17.20
2006,10,12,15,13,17.10
2006,10,12,15,14,17.10
2006,10,12,15,15,17.10
2006,10,12,15,16,17.00
2006,10,12,15,17,16.90
2006,10,12,15,18,16.90
2006,10,12,15,19,17.00
2006,10,12,15,20,17.00
2006,10,12,15,21,17.10
2006,10,12,15,22,17.20
2006,10,12,15,23,17.20
2006,10,12,15,24,17.20
2006,10,12,15,25,17.30
2006,10,12,15,26,17.30
2006,10,12,15,27,17.30
2006,10,12,15,28,17.30
2006,10,12,15,29,17.40
2006,10,12,15,30,17.40
2006,10,12,15,31,17.30
2006,10,12,15,32,17.30
2006,10,12,15,33,17.30
2006,10,12,15,34,17.20
2006,10,12,15,35,17.10
2006,10,12,15,36,17.10
2006,10,12,15,37,17.10
2006,10,12,15,38,17.10
2006,10,12,15,39,17.20
2006,10,12,15,40,17.20
2006,10,12,15,41,17.30
2006,10,12,15,42,17.30
2006,10,12,15,43,17.40
2006,10,12,15,44,17.40
2006,10,12,15,45,17.40
2006,10,12,15,46,17.30
2006,10,12,15,47,17.30
2006,10,12,15,48,17.20
2006,10,12,15,49,17.10
2006,10,12,15,50,17.10
2006,10,12,15,51,17.10
2006,10,12,15,52,17.10
2006,10,12,15,53,17.20
2006,10,12,15,54,17.20
2006,10,12,15,55,17.30
2006,10,12,15,56,17.30
2006,10,12,15,57,17.30
2006,10,12,15,58,17.40
2006,10,12,15,59,17.50
2006,10,12,16,00,17.50
2006,10,12,16,01,17.50
2006,10,12,16,02,17.60
2006,10,12,16,03,17.60
2006,10,12,16,04,17.60
2006,10,12,16,05,17.70
2006,10,12,16,06,17.80
2006,10,12,16,07,17.90
2006,10,12,16,08,17.90
2006,10,12,16,09,17.90
2006,10,12,16,10,17.70
2006,10,12,16,11,17.60
2006,10,12,16,12,17.50
2006,10,12,16,13,17.50
2006,10,12,16,14,17.50
2006,10,12,16,15,17.50
2006,10,12,16,16,17.50
2006,10,12,16,17,17.40
2006,10,12,16,18,17.40
2006,10,12,16,19,17.30
2006,10,12,16,20,17.30
2006,10,12,16,21,17.40
2006,10,12,16,22,17.40
2006,10,12,16,23,17.50
2006,10,12,16,24,17.50
2006,10,12,16,25,17.50
2006,10,12,16,26,17.50
2006,10,12,16,27,17.50
2006,10,12,16,28,17.50
2006,10,12,16,29,17.50
2006,10,12,16,30,17.50
2006,10,12,16,31,17.50
2006,10,12,16,32,17.50
2006,10,12,16,33,17.60
2006,10,12,16,34,17.70
2006,10,12,16,35,17.70
2006,10,12,16,36,17.80
2006,10,12,16,37,17.80
2006,10,12,16,38,17.70
2006,10,12,16,39,17.70
2006,10,12,16,40,17.60
2006,10,12,16,41,17.60
2006,10,12,16,42,17.50
2006,10,12,16,43,17.50
2006,10,12,16,44,17.50
2006,10,12,16,45,17.60
2006,10,12,16,46,17.70
2006,10,12,16,47,17.60
2006,10,12,16,48,17.60
2006,10,12,16,49,17.70
2006,10,12,16,50,17.70
2006,10,12,16,51,17.80
2006,10,12,16,52,17.80
2006,10,12,16,53,17.90
2006,10,12,16,54,17.90
2006,10,12,16,55,18.00
2006,10,12,16,56,18.20
2006,10,12,16,57,18.20
2006,10,12,16,58,18.30
2006,10,12,16,59,18.30
2006,10,12,17,00,18.30
2006,10,12,17,01,18.50
2006,10,12,17,02,18.60
2006,10,12,17,03,18.60
2006,10,12,17,04,18.70
2006,10,12,17,05,18.70
2006,10,12,17,06,18.80
2006,10,12,17,07,18.80
2006,10,12,17,08,18.80
2006,10,12,17,09,18.90
2006,10,12,17,10,18.90
2006,10,12,17,11,18.90
2006,10,12,17,12,18.90
2006,10,12,17,13,19.00
2006,10,12,17,14,19.10
2006,10,12,17,15,19.10
2006,10,12,17,16,19.00
2006,10,12,17,17,18.90
2006,10,12,17,18,18.90
2006,10,12,17,19,18.90
2006,10,12,17,20,18.90
2006,10,12,17,21,18.90
2006,10,12,17,22,18.90
2006,10,12,17,23,18.90
2006,10,12,17,24,18.90
2006,10,12,17,25,18.70
2006,10,12,17,26,18.60